DW1334 Wilmington MA US current weather conditions

sailwx.info

Wind from 293

Air temperature -8.9° C
Dewpoint -16.7° C

Last reported at 2020-Jan-21 05:44 UTC.
Time now 2020-Jan-21 06:31 UTC

Location: N 42°33' W 071°11'.
View on Google Maps.

See reports from other nearby stations

  
Tides and Currents Weather Stations Pressure Air Temp Water Temp Dewpoint Dewpoint Depression Visibility Wind Speed Wind Dir Waves Ship Positions
date/time (UTC)wind fromknots sea level pressurealtimeterstation pressurevisibilityair tempwater tempwave heightnotes
2020-Jan-21 05:44 293 -8.9
2020-Jan-21 05:34 293 -8.9
2020-Jan-21 04:54 135 -8.3
2020-Jan-21 04:44 315 -8.3
2020-Jan-21 04:24 293 -8.3
2020-Jan-21 03:54 293 -9.4
2020-Jan-21 03:34 293 -9.4
2020-Jan-21 03:24 293 -9.4
2020-Jan-21 03:14 315 -8.9
2020-Jan-21 03:04 315 -8.9
2020-Jan-21 02:44 315 -8.3
2020-Jan-21 02:34 315 -8.3
2020-Jan-21 02:24 315 -7.8
2020-Jan-21 02:04 315 -7.8
2020-Jan-21 01:44 293 -7.8
2020-Jan-21 01:34 293 -7.8
2020-Jan-21 01:14 293 -7.8
2020-Jan-21 01:04 293 -7.8
2020-Jan-21 00:54 293 -8.3
2020-Jan-21 00:44 293 -8.3
2020-Jan-21 00:34 293 -8.3
2020-Jan-21 00:24 293 -8.3
2020-Jan-21 00:14 293 -8.3
2020-Jan-21 00:04 293 -7.8
2020-Jan-20 23:44 293 -7.2
2020-Jan-20 23:34 293 -7.2
2020-Jan-20 23:24 293 -6.7
2020-Jan-20 23:14 293 -6.7
2020-Jan-20 22:54 293 -6.7
2020-Jan-20 22:44 293 -6.1
2020-Jan-20 22:24 293 -5.6
2020-Jan-20 22:04 293 -5.0
2020-Jan-20 21:54 338 -5.0
2020-Jan-20 21:24 315 -3.9
2020-Jan-20 21:14 315 -3.3
2020-Jan-20 20:34 315 -2.8
2020-Jan-20 20:14 068 -2.8
2020-Jan-20 20:04 293 -2.2
2020-Jan-20 19:54 225 -2.2
2020-Jan-20 19:34 315 -2.2
2020-Jan-20 19:04 270 0 gusting 0 -2.2
2020-Jan-20 18:34 270 4 gusting 4 -2.8
2020-Jan-20 18:24 315 1 gusting 5 -2.8
2020-Jan-20 18:04 315 -2.8
2020-Jan-20 17:44 338 2 gusting 2 -3.3
2020-Jan-20 17:34 270 -3.3
2020-Jan-20 17:24 338 4 gusting 4 -3.3
2020-Jan-20 16:54 315 0 gusting 4 -3.9
2020-Jan-20 16:44 293 1 gusting 1 -3.9
2020-Jan-20 16:34 315 5 gusting 5 -3.9
2020-Jan-20 16:14 338 3 gusting 3 -4.4
2020-Jan-20 16:04 315 1 gusting 6 -4.4
2020-Jan-20 15:34 270 1 gusting 3 -5.6
2020-Jan-20 15:24 338 0 gusting 0 -5.6
2020-Jan-20 15:14 045 -6.1
2020-Jan-20 14:54 315 5 gusting 5 -6.7
2020-Jan-20 14:34 225 -7.2
2020-Jan-20 14:24 293 -7.8
2020-Jan-20 14:14 293 -8.3
2020-Jan-20 14:04 293 0 gusting 1 -8.9
2020-Jan-20 13:44 315 6 gusting 6 -8.3
2020-Jan-20 13:14 315 6 gusting 6 -8.3
2020-Jan-20 13:04 293 -8.9
2020-Jan-20 12:54 293 -8.9
2020-Jan-20 12:14 -8.9
2020-Jan-20 12:04 090 -8.9
2020-Jan-20 11:34 338 -8.9
2020-Jan-20 11:24 315 -8.9
2020-Jan-20 11:14 293 0 gusting 0 -8.9
2020-Jan-20 10:54 293 1 gusting 1 -9.4
2020-Jan-20 10:44 338 -9.4
2020-Jan-20 10:34 338 1 gusting 1 -9.4
2020-Jan-20 10:14 315 1 gusting 1 -9.4
2020-Jan-20 09:54 293 0 gusting 0 -8.9
2020-Jan-20 09:44 090 -8.9
2020-Jan-20 09:34 338 1 gusting 1 -8.9
2020-Jan-20 09:24 315 1 gusting 3 -8.3
2020-Jan-20 09:14 135 -8.3
2020-Jan-20 08:54 -8.3
2020-Jan-20 08:44 135 -8.3
2020-Jan-20 08:34 338 -8.3
2020-Jan-20 08:24 293 3 gusting 3 -8.3
2020-Jan-20 08:14 293 3 gusting 3 -8.3
2020-Jan-20 08:04 293 3 gusting 3 -8.3
2020-Jan-20 07:54 293 3 gusting 3 -7.8
2020-Jan-20 07:44 293 3 gusting 3 -7.8
2020-Jan-20 07:14 293 3 gusting 3 -7.2
2020-Jan-20 06:54 293 3 gusting 3 -6.7
2020-Jan-20 06:44 293 3 gusting 3 -6.7
2020-Jan-20 06:34 293 3 gusting 3 -6.7
2020-Jan-20 06:24 293 3 gusting 3 -6.7
2020-Jan-20 06:14 293 3 gusting 3 -6.7
2020-Jan-20 06:04 293 3 gusting 3 -6.7
2020-Jan-20 05:44 293 3 gusting 3 -6.7
2020-Jan-20 05:34 293 3 gusting 3 -6.1
2020-Jan-20 05:24 293 3 gusting 3 -6.1
2020-Jan-20 05:14 293 3 gusting 3 -6.1
2020-Jan-20 05:04 293 3 gusting 3 -5.6
2020-Jan-20 04:24 293 3 gusting 3 -5.0
2020-Jan-20 04:04 293 3 gusting 3 -4.4
2020-Jan-20 03:44 293 3 gusting 3 -3.9
2020-Jan-20 03:34 293 3 gusting 3 -3.3
2020-Jan-20 03:24 293 3 gusting 3 -3.3
2020-Jan-20 03:14 293 3 gusting 3 -2.8
2020-Jan-20 03:04 293 3 gusting 3 -2.8
2020-Jan-20 02:54 293 3 gusting 3 -2.2
2020-Jan-20 02:44 293 3 gusting 3 -1.7
2020-Jan-20 02:14 293 3 gusting 3 -1.1
2020-Jan-20 02:04 293 3 gusting 3 -0.6
2020-Jan-20 01:44 293 3 gusting 3 -0.0
2020-Jan-20 01:24 293 3 gusting 3 0.6
2020-Jan-20 01:14 293 3 gusting 3 0.6
2020-Jan-20 01:04 293 3 gusting 3 0.6
2020-Jan-20 00:44 293 3 gusting 3 0.6
2020-Jan-20 00:34 293 3 gusting 3 0.6
2020-Jan-20 00:04 293 3 gusting 3 1.1
2020-Jan-19 23:44 293 3 gusting 3 1.1
2020-Jan-19 23:24 293 3 gusting 3 1.1
2020-Jan-19 23:14 293 3 gusting 3 1.7
2020-Jan-19 22:54 293 3 gusting 3 1.7
2020-Jan-19 22:44 293 3 gusting 3 1.7
2020-Jan-19 22:34 293 3 gusting 3 2.2
2020-Jan-19 22:24 293 3 gusting 3 2.2
2020-Jan-19 21:54 293 3 gusting 3 2.8
2020-Jan-19 21:34 293 3 gusting 3 3.3
2020-Jan-19 21:14 293 3 gusting 3 3.3
2020-Jan-19 20:54 293 3 gusting 3 3.9
2020-Jan-19 20:44 293 3 gusting 3 3.9
2020-Jan-19 20:34 293 3 gusting 3 3.9
2020-Jan-19 20:04 293 3 gusting 3 3.9
2020-Jan-19 19:14 270 5.6
2020-Jan-19 18:44 315 1 gusting 1 6.1
2020-Jan-19 18:24 338 1 gusting 1 5.6
2020-Jan-19 18:14 338 1 gusting 1 5.6
2020-Jan-19 17:04 270 6 gusting 6 5.0
2020-Jan-19 16:54 270 6 gusting 6 4.4
2020-Jan-19 16:44 270 6 gusting 6 4.4
2020-Jan-19 16:34 270 6 gusting 6 4.4
2020-Jan-19 16:14 315 5 gusting 5 3.3
2020-Jan-19 16:04 270 7 gusting 7 3.3
2020-Jan-19 15:54 315 2.8
2020-Jan-19 15:24 293 1.7
2020-Jan-19 14:54 270 -0.6
2020-Jan-19 14:44 270 -1.1
2020-Jan-19 14:24 270 -2.8
2020-Jan-19 14:14 293 -3.3
2020-Jan-19 13:54 225 -4.4
2020-Jan-19 13:34 225 99 gusting 99 -5.6
2020-Jan-19 13:04 225 99 gusting 99 -6.1
2020-Jan-19 12:54 225 99 gusting 99 -6.7
2020-Jan-19 12:34 225 -6.7
2020-Jan-19 12:24 225 -6.7
2020-Jan-19 11:54 293 -6.1
2020-Jan-19 11:44 293 -6.1
2020-Jan-19 11:14 293 -6.1
2020-Jan-19 10:54 293 -6.1
2020-Jan-19 10:14 293 -6.1
2020-Jan-19 10:04 293 -6.1
2020-Jan-19 09:54 293 -6.1
2020-Jan-19 09:44 293 -6.1
2020-Jan-19 09:34 293 -6.1
2020-Jan-19 09:24 293 -6.1
2020-Jan-19 09:14 293 -6.1
2020-Jan-19 09:04 293 -6.1
2020-Jan-19 08:34 293 -6.1
2020-Jan-19 08:24 293 99 gusting 99 -6.1
2020-Jan-19 08:14 293 99 gusting 99 -6.1
2020-Jan-19 08:04 293 99 gusting 99 -6.1
2020-Jan-19 07:44 293 -5.6
2020-Jan-19 07:34 090 -5.6
2020-Jan-19 07:24 090 -6.1
2020-Jan-19 07:04 090 -6.1
2020-Jan-19 06:54 090 -6.1
2020-Jan-19 06:44 090 -6.1
2020-Jan-19 06:24 090 -6.1
2020-Jan-19 06:14 090 -6.1